EW6551 Weather Reports


time (UTC)temp
C
wind
direction
speed
KPH
gust
KPH
rain 1hr
cm
rain 24hr
cm
rain mn
cm
humidity
%
barometer
mb
20260506025319 -17 256 4.8 9.7 0.00 0.03 0.00
20260506024320 20 254 1.6 11.3 0.00 0.05 0.00 39 1012.2
20260506023321 20 259 4.8 9.7 0.00 0.05 0.00 38 1012.0
20260506022340 20 263 4.8 9.7 0.00 0.05 0.00 38 1011.9
20260506021321 -17 263 1.6 9.7 0.00 0.05 0.00
20260506020317 21 273 4.8 9.7 0.00 0.05 0.00 34 1011.9
20260506015336 21 280 4.8 12.9 0.00 0.05 0.00 34 1011.7
20260506014320 -17 285 0.0 4.8 0.00 0.05 0.00
20260506013318 22 285 3.2 6.4 0.00 0.08 0.00 32 1011.6
20260506012338 21 285 1.6 8.0 0.00 0.20 0.00 32 1011.8
20260506011322 21 8 6.4 8.0 0.00 0.30 0.00 33 1011.8
20260506010322 -17 302 1.6 9.7 0.00 0.36 0.00
20260506005318 21 36 4.8 14.5 0.00 0.38 0.00 33 1011.8
20260506004319 21 344 8.0 12.9 0.00 0.53 0.00 36 1011.8
20260506003338 21 19 6.4 12.9 0.00 0.89 0.00 35 1011.9
20260506002316 21 283 4.8 14.5 0.00 0.91 0.00 34 1011.8
20260506001340 21 51 4.8 17.7 0.00 0.91 0.00 35 1011.8
20260506000317 21 275 4.8 14.5 0.00 0.91 0.00 35 1011.8
20260505235341 21 319 8.0 14.5 0.00 0.91 0.00 36 1011.8
20260505234318 21 319 3.2 16.1 0.00 0.91 0.00 36 1011.9
20260505233337 22 313 8.0 12.9 0.00 0.91 0.00 35 1011.9
20260505232316 -17 233 9.7 11.3 0.00 0.91 0.00
20260505231320 -17 233 4.8 9.7 0.00 0.91 0.00
20260505230319 -17 226 6.4 11.3 0.00 0.91 0.00
20260505225321 -17 224 3.2 9.7 0.00 0.91 0.00
20260505224319 20 218 1.6 8.0 0.00 0.91 0.00 37 1012.1
20260505223337 -17 134 4.8 12.9 0.00 0.91 0.00
20260505222317 19 341 1.6 8.0 0.00 0.91 0.00 38 1012.4
20260505221317 -17 219 4.8 8.0 0.00 0.91 0.00
20260505220316 19 161 1.6 12.9 0.00 0.91 0.00 40 1012.7
20260505215324 19 80 6.4 16.1 0.00 0.91 0.00 40 1012.8
20260505214316 20 353 11.3 16.1 0.00 0.91 0.00 43 1012.9
20260505213320 -17 343 3.2 11.3 0.00 0.91 0.00
20260505212318 -17 280 3.2 14.5 0.00 0.91 0.00
20260505211316 17 307 1.6 6.4 0.00 0.91 0.00 48 1013.3
20260505210320 17 307 1.6 9.7 0.00 0.91 0.00 46 1013.4
20260505205318 -17 44 4.8 9.7 0.00 0.91 0.00
20260505204316 18 276 4.8 14.5 0.00 0.91 0.00 47 1013.5
20260505203319 -17 280 6.4 8.0 0.00 0.91 0.00
20260505202320 18 273 9.7 12.9 0.00 0.91 0.00 46 1013.6
20260505201320 18 150 4.8 11.3 0.00 0.97 0.00 48 1013.6
20260505200317 17 196 8.0 12.9 0.00 1.04 0.00 52 1013.7
20260505195341 17 95 8.0 14.5 0.00 1.04 0.00 53 1013.8
20260505194317 17 119 6.4 12.9 0.00 1.04 0.00 51 1013.8
20260505193346 16 352 4.8 14.5 0.00 1.04 0.00 58 1013.9
20260505192320 -17 65 3.2 14.5 0.00 1.04 0.00
20260505191317 16 288 3.2 9.7 0.00 1.04 0.00 56 1013.9
20260505190401 15 290 3.2 8.0 0.00 1.04 0.00 58 1013.8
20260505185337 15 169 4.8 9.7 0.00 1.04 0.00 57 1013.9
20260505184319 15 80 3.2 6.4 0.00 1.04 0.00 60 1013.9
20260505183320 15 179 3.2 8.0 0.00 1.04 0.00 61 1014.0
20260505182318 -17 172 3.2 8.0 0.00 1.04 0.00
20260505181320 13 175 1.6 9.7 0.00 1.04 0.00 64 1013.9
20260505180339 13 175 3.2 9.7 0.00 1.04 0.00 63 1013.8
20260505175324 13 150 1.6 9.7 0.00 1.04 0.00 66 1013.8
20260505174317 13 151 8.0 9.7 0.00 1.04 0.00 63 1013.7
20260505173321 13 0.0 9.7 0.00 1.04 0.00 65 1013.6
20260505172320 13 229 6.4 9.7 0.00 1.04 0.00 63 1013.4
20260505171322 13 230 3.2 6.4 0.00 1.04 0.00 65 1013.5
20260505170321 12 230 1.6 8.0 0.00 1.04 0.00 70 1013.4
20260505165320 12 180 0.0 6.4 0.00 1.04 0.00 70 1013.4
20260505164344 12 180 0.0 6.4 0.00 1.04 0.00 71 1013.4
20260505163318 11 0.0 3.2 0.00 1.04 0.00 74 1013.4
20260505162321 11 0.0 1.6 0.00 1.07 0.00 75 1013.3
20260505161321 10 0.0 3.2 0.00 1.09 0.00 77 1013.2
20260505160320 -17 0.0 3.2 0.00 1.09 0.00
20260505153342 9 0.0 3.2 0.00 1.12 0.00 79 1012.9
20260505152317 9 181 0.0 1.6 0.00 1.12 0.00 80 1012.7
20260505151317 -17 181 0.0 3.2 0.00 1.12 0.00
20260505150320 -17 0.0 4.8 0.00 1.12 0.00
20260505140320 8 165 0.0 3.2 0.00 1.12 0.00 83 1012.2
20260505124320 -17 283 3.2 6.4 0.00 1.12 0.00
20260505123316 8 314 1.6 6.4 0.00 1.12 0.00 83 1011.2
20260505122341 8 278 1.6 3.2 0.00 1.12 0.00 86 1011.3
20260505121321 8 278 1.6 4.8 0.00 1.12 0.00 84 1011.3
20260505120338 8 278 0.0 3.2 0.00 1.12 0.00 85 1011.3
20260505115321 -17 0.0 3.2 0.00 1.12 0.00
20260505114320 -17 0.0 0.0 0.00 1.12 0.00
20260505113317 -17 0.0 4.8 0.00 1.12 0.00
20260505112319 -17 0.0 6.4 0.00 1.12 0.00
20260505111316 7 278 1.6 3.2 0.00 1.12 0.00 85 1011.3
20260505110319 -17 0.0 0.0 0.00 1.12 0.00
20260505101341 -17 278 1.6 3.2 0.00 1.12 0.00
20260505100341 7 0.0 1.6 0.00 1.12 0.00 82 1011.6
20260505095326 7 0.0 1.6 0.00 1.12 0.00 84 1011.7
20260505094340 7 278 0.0 6.4 0.00 1.12 0.00 81 1011.7
20260505093320 -17 278 1.6 4.8 0.00 1.12 0.00
20260505092318 -17 278 1.6 9.7 0.00 1.12 0.00
20260505091323 7 300 4.8 9.7 0.00 1.12 0.00 81 1011.8
20260505090343 7 284 1.6 3.2 0.00 1.12 0.00 82 1011.9
20260505085321 7 0.0 0.0 0.00 1.12 0.00 82 1011.9
20260505084343 -17 0.0 0.0 0.00 1.12 0.00
20260505083317 7 0.0 6.4 0.00 1.12 0.00 82 1012.1
20260505082342 7 284 4.8 11.3 0.00 1.12 0.00 81 1012.2
20260505081322 -17 288 8.0 12.9 0.00 1.12 0.00
20260505080341 7 244 4.8 9.7 0.00 1.12 0.00 85 1012.3
20260505075343 7 244 3.2 8.0 0.00 1.12 0.00 86 1012.4
20260505074318 7 0.0 9.7 0.00 1.12 0.00 84 1012.5
20260505073318 7 244 4.8 6.4 0.00 1.12 0.00 83 1012.3
20260505072325 7 244 1.6 8.0 0.00 1.12 0.00 81 1012.6
20260505071319 7 244 4.8 8.0 0.00 1.12 0.00 83 1012.6
20260505070339 7 244 1.6 3.2 0.00 1.12 0.00 84 1012.3
20260505065321 7 0.0 3.2 0.00 1.12 1.12 85 1012.3
20260505064318 7 244 1.6 3.2 0.00 1.12 1.12 84 1012.1
20260505063340 7 244 0.0 6.4 0.00 1.12 1.12 82 1011.8
20260505062319 7 244 1.6 6.4 0.00 1.12 1.12 81 1011.6
20260505061321 7 244 3.2 11.3 0.00 1.12 1.12 80 1011.4
20260505060330 7 244 4.8 20.9 0.00 1.12 1.12 79 1011.5
20260505055319 7 230 9.7 20.9 0.00 1.12 1.12 79 1011.6
20260505054339 -17 254 8.0 29.0 0.00 1.12 1.12
20260505053336 7 241 11.3 29.0 0.00 1.12 1.12 79 1011.9
20260505052316 -17 250 8.0 27.4 0.03 1.12 1.12
20260505051318 -17 262 8.0 19.3 0.03 1.12 1.12
20260505050317 -17 271 1.6 11.3 0.03 1.12 1.12
20260505041340 7 236 3.2 17.7 0.00 1.09 1.09 81 1011.6
20260505040321 -17 233 9.7 17.7 0.00 1.09 1.09
20260505035320 8 245 12.9 19.3 0.00 1.09 1.09 82 1011.9
20260505034340 -17 269 8.0 27.4 0.03 1.09 1.09
20260505033343 7 273 19.3 32.2 0.03 1.09 1.09 82 1011.3
20260505032318 7 264 11.3 38.6 0.03 1.09 1.09 83 1011.1
20260505031316 7 250 22.5 33.8 0.03 1.09 1.09 82 1011.1
20260505030403 7 244 17.7 37.0 0.03 1.09 1.09 82 1011.5